SFOS-I-0001,2011-09-30 06:31:39,2011-09-30 06:31:00,23499,3,64.753288,-50.595517,0.47,12.0,0,2332750
SFOS-I-0001,2011-09-30 06:01:22,2011-09-30 06:01:00,21682,3,64.753360,-50.595587,0.51,12.0,0,2332749
SFOS-I-0001,2011-09-30 05:31:27,2011-09-30 05:31:00,19887,3,64.753207,-50.595426,0.54,12.0,0,2332744
SFOS-I-0001,2011-09-30 05:01:22,2011-09-30 05:01:00,18082,3,64.753196,-50.595331,0.47,12.0,0,2332743
SFOS-I-0001,2011-09-30 04:31:24,2011-09-30 04:31:00,16284,3,64.753196,-50.595365,0.63,12.0,0,2332738
SFOS-I-0001,2011-09-30 04:01:39,2011-09-30 04:02:00,14499,3,64.753188,-50.595353,0.50,12.0,0,2332737
SFOS-I-0001,2011-09-30 03:31:21,2011-09-30 03:31:00,12681,3,64.753210,-50.595337,0.46,12.0,0,2332731
SFOS-I-0001,2011-09-30 03:01:22,2011-09-30 03:01:00,10882,3,64.753185,-50.595365,0.28,12.0,0,2332730
SFOS-I-0001,2011-09-30 02:31:37,2011-09-30 02:31:00,9097,3,64.753105,-50.595134,0.50,12.0,0,2332726
SFOS-I-0001,2011-09-30 02:01:23,2011-09-30 02:01:00,7283,3,64.752968,-50.595156,0.59,12.0,0,2332724
SFOS-I-0001,2011-09-30 01:31:39,2011-09-30 01:31:00,5499,3,64.754488,-50.595890,0.51,12.0,0,2332719
SFOS-I-0001,2011-09-30 01:01:38,2011-09-30 01:01:00,3698,3,64.754513,-50.595906,0.33,12.0,0,2332718
SFOS-I-0001,2011-09-30 00:31:21,2011-09-30 00:31:00,1881,3,64.754599,-50.596040,0.66,12.0,0,2332712
SFOS-I-0001,2011-09-30 00:01:25,2011-09-30 00:01:00,85,3,64.754663,-50.595995,0.63,12.0,0,2332711
SFOS-I-0001,2011-09-29 23:31:22,2011-09-29 23:31:00,84682,3,64.754657,-50.596087,0.85,12.0,0,2332705
SFOS-I-0001,2011-09-29 23:01:26,2011-09-29 23:01:00,82886,3,64.754663,-50.596006,0.89,12.0,0,2332704
SFOS-I-0001,2011-09-29 22:31:27,2011-09-29 22:31:00,81087,3,64.754682,-50.596001,0.83,12.0,0,2332699
SFOS-I-0001,2011-09-29 22:01:33,2011-09-29 22:04:00,79293,3,64.754541,-50.595887,0.82,12.0,0,2332698
SFOS-I-0001,2011-09-29 21:31:26,2011-09-29 21:31:00,77486,3,64.754707,-50.595984,0.74,12.0,0,2332693
SFOS-I-0001,2011-09-29 21:01:23,2011-09-29 21:01:00,75683,3,64.754680,-50.595984,0.85,12.0,0,2332692
SFOS-I-0001,2011-09-29 20:31:38,2011-09-29 20:31:00,73898,3,64.754677,-50.596023,0.96,12.0,0,2332687
SFOS-I-0001,2011-09-29 20:01:23,2011-09-29 20:01:00,72083,3,64.754635,-50.595945,0.87,12.0,0,2332686
SFOS-I-0001,2011-09-29 19:31:23,2011-09-29 19:31:00,70283,3,64.754685,-50.596031,0.83,12.0,0,2332680
SFOS-I-0001,2011-09-29 19:01:22,2011-09-29 19:01:00,68482,3,64.754713,-50.596026,0.73,12.0,0,2332678
SFOS-I-0001,2011-09-29 18:31:26,2011-09-29 18:31:00,66686,3,64.754724,-50.596012,0.75,12.0,0,2332675
SFOS-I-0001,2011-09-29 18:03:08,2011-09-29 18:03:00,64988,3,64.754710,-50.596031,0.79,12.0,0,2332673
SFOS-I-0001,2011-09-29 17:01:25,2011-09-29 17:01:00,61285,3,64.754652,-50.596090,0.72,12.0,0,2332668
SFOS-I-0001,2011-09-29 16:31:38,2011-09-29 16:31:00,59498,3,64.754655,-50.596062,0.78,12.0,0,2332666
SFOS-I-0001,2011-09-29 16:01:31,2011-09-29 16:01:00,57691,3,64.754757,-50.596184,0.73,12.0,0,2332649
SFOS-I-0001,2011-09-29 15:31:25,2011-09-29 15:31:00,55885,3,64.754627,-50.595995,0.70,12.0,0,2332628
SFOS-I-0001,2011-09-29 15:01:23,2011-09-29 15:02:00,54083,3,64.754652,-50.595987,0.67,12.0,0,2332612
SFOS-I-0001,2011-09-29 14:31:38,2011-09-29 14:31:00,52298,3,64.754635,-50.596020,0.70,12.0,1,2332598
SFOS-I-0001,2011-09-29 14:01:20,2011-09-29 14:01:00,50480,3,64.754591,-50.596040,0.82,12.0,0,2332597
SFOS-I-0001,2011-09-29 13:31:20,2011-09-29 13:31:00,48680,3,64.754443,-50.595967,0.98,12.0,0,2332593
SFOS-I-0001,2011-09-29 13:01:28,2011-09-29 13:01:00,46888,3,64.754460,-50.595903,0.64,12.0,0,2332592
SFOS-I-0001,2011-09-29 12:31:38,2011-09-29 12:31:00,45098,3,64.754521,-50.595940,0.52,12.0,0,2332588
SFOS-I-0001,2011-09-29 12:01:25,2011-09-29 12:01:00,43285,3,64.754574,-50.596017,0.40,12.0,0,2332575
SFOS-I-0001,2011-09-29 11:31:24,2011-09-29 11:31:00,41484,3,64.754624,-50.595973,0.55,12.0,0,2332559
SFOS-I-0001,2011-09-29 11:01:25,2011-09-29 11:01:00,39685,3,64.754599,-50.596042,0.79,12.0,0,2332543
SFOS-I-0001,2011-09-29 10:31:21,2011-09-29 10:31:00,37881,3,64.754613,-50.596045,0.80,12.0,0,2332529
SFOS-I-0001,2011-09-29 10:01:38,2011-09-29 10:01:00,36098,3,64.754630,-50.596017,0.85,12.0,0,2332515
SFOS-I-0001,2011-09-29 09:31:20,2011-09-29 09:31:00,34280,3,64.754657,-50.596009,0.80,12.0,0,2332500
SFOS-I-0001,2011-09-29 09:01:39,2011-09-29 09:01:00,32499,3,64.754624,-50.596084,0.75,12.0,0,2332485
SFOS-I-0001,2011-09-29 08:31:22,2011-09-29 08:31:00,30682,3,64.754688,-50.596087,1.04,12.0,0,2332471
SFOS-I-0001,2011-09-29 08:01:21,2011-09-29 08:01:00,28881,3,64.754660,-50.596003,0.95,12.0,0,2332456
SFOS-I-0001,2011-09-29 07:31:20,2011-09-29 07:31:00,27080,3,64.754649,-50.596003,0.93,12.0,0,2332440
SFOS-I-0001,2011-09-29 07:01:27,2011-09-29 07:01:00,25287,3,64.754643,-50.596001,0.74,12.0,0,2332425
SFOS-I-0001,2011-09-29 06:31:57,2011-09-29 06:32:00,23517,3,64.754643,-50.596067,0.65,12.0,0,2332412
SFOS-I-0001,2011-09-29 06:01:39,2011-09-29 06:01:00,21699,3,64.754702,-50.596145,0.46,12.0,0,2332395
SFOS-I-0001,2011-09-29 05:31:20,2011-09-29 05:31:00,19880,3,64.754646,-50.596015,0.44,12.0,0,2332381
SFOS-I-0001,2011-09-29 05:01:21,2011-09-29 05:01:00,18081,3,64.754646,-50.596034,0.70,12.0,0,2332367
SFOS-I-0001,2011-09-29 04:31:57,2011-09-29 04:32:00,16317,3,64.754624,-50.596048,0.75,12.0,0,2332353
SFOS-I-0001,2011-09-29 04:01:23,2011-09-29 04:03:00,14483,3,64.754580,-50.595981,0.85,12.0,0,2332338
SFOS-I-0001,2011-09-29 03:31:20,2011-09-29 03:31:00,12680,3,64.754618,-50.596045,0.83,12.0,0,2332322
SFOS-I-0001,2011-09-29 03:01:39,2011-09-29 03:01:00,10899,3,64.754582,-50.596084,0.98,12.0,0,2332307
SFOS-I-0001,2011-09-29 02:31:24,2011-09-29 02:31:00,9084,3,64.754571,-50.595992,0.86,12.0,0,2332292
SFOS-I-0001,2011-09-29 02:01:22,2011-09-29 02:01:00,7282,3,64.754543,-50.595987,0.80,12.0,0,2332279
SFOS-I-0001,2011-09-29 01:31:37,2011-09-29 01:31:00,5497,3,64.754405,-50.595767,0.88,12.0,0,2332264
SFOS-I-0001,2011-09-29 01:01:23,2011-09-29 01:01:00,3683,3,64.754410,-50.595670,0.85,12.0,0,2332251
SFOS-I-0001,2011-09-29 00:31:56,2011-09-29 00:32:00,1916,3,64.754463,-50.595915,0.73,12.0,0,2332236
SFOS-I-0001,2011-09-29 00:01:56,2011-09-29 00:02:00,116,3,64.754480,-50.595906,0.54,12.0,0,2332221
SFOS-I-0001,2011-09-28 23:31:23,2011-09-28 23:31:00,84683,3,64.754635,-50.595903,0.33,12.0,0,2332204
SFOS-I-0001,2011-09-28 23:01:23,2011-09-28 23:01:00,82883,3,64.754638,-50.595917,0.33,12.0,0,2332189
SFOS-I-0001,2011-09-28 22:31:25,2011-09-28 22:31:00,81085,3,64.754643,-50.595995,0.68,12.0,0,2332165
SFOS-I-0001,2011-09-28 22:01:23,2011-09-28 22:01:00,79283,3,64.754607,-50.596026,0.40,12.0,0,2332136
SFOS-I-0001,2011-09-28 21:31:52,2011-09-28 21:32:00,77512,3,64.754630,-50.595976,0.41,12.0,0,2332108
SFOS-I-0001,2011-09-28 21:01:38,2011-09-28 21:01:00,75698,3,64.754630,-50.596073,0.51,12.0,0,2332079
SFOS-I-0001,2011-09-28 20:32:05,2011-09-28 20:32:00,73925,3,64.754630,-50.595984,0.60,12.0,0,2332050
SFOS-I-0001,2011-09-28 20:01:38,2011-09-28 20:01:00,72098,3,64.754652,-50.595984,0.88,12.0,0,2332021
SFOS-I-0001,2011-09-28 19:31:23,2011-09-28 19:31:00,70283,3,64.754605,-50.596042,0.98,12.0,0,2331993
SFOS-I-0001,2011-09-28 19:04:08,2011-09-28 19:04:00,68648,3,64.754643,-50.596023,1.10,12.0,0,2331968
SFOS-I-0001,2011-09-28 17:31:25,2011-09-28 17:31:00,63085,3,64.754663,-50.595884,0.81,12.0,0,2331899
SFOS-I-0001,2011-09-28 17:01:28,2011-09-28 17:01:00,61288,3,64.754649,-50.595903,0.81,12.0,0,2331883
SFOS-I-0001,2011-09-28 16:35:38,2011-09-28 16:35:00,59738,3,64.754655,-50.595948,0.88,12.0,0,2331867
SFOS-I-0001,2011-09-28 14:31:23,2011-09-28 14:31:00,52283,3,64.754591,-50.596106,0.61,12.0,0,2331809
SFOS-I-0001,2011-09-28 14:01:26,2011-09-28 14:01:00,50486,3,64.754607,-50.596017,0.55,12.0,0,2331794
SFOS-I-0001,2011-09-28 13:31:38,2011-09-28 13:31:00,48698,3,64.754410,-50.595681,0.95,12.0,0,2331776
SFOS-I-0001,2011-09-28 13:01:23,2011-09-28 13:01:00,46883,3,64.754368,-50.595784,0.91,12.0,0,2331757
SFOS-I-0001,2011-09-28 12:31:25,2011-09-28 12:31:00,45085,3,64.754385,-50.595842,0.78,12.0,0,2331731
SFOS-I-0001,2011-09-28 12:01:57,2011-09-28 12:02:00,43317,3,64.754455,-50.595995,0.88,12.0,0,2331702
SFOS-I-0001,2011-09-28 11:31:25,2011-09-28 11:31:00,41485,3,64.754666,-50.595859,0.99,12.0,0,2331683
SFOS-I-0001,2011-09-28 11:01:39,2011-09-28 11:01:00,39699,3,64.754618,-50.595901,0.86,12.0,0,2331666
SFOS-I-0001,2011-09-28 10:31:21,2011-09-28 10:31:00,37881,3,64.754605,-50.596006,1.11,12.0,0,2331641
SFOS-I-0001,2011-09-28 10:01:27,2011-09-28 10:01:00,36087,3,64.754610,-50.596048,1.06,12.0,0,2331621
SFOS-I-0001,2011-09-28 09:31:21,2011-09-28 09:31:00,34281,3,64.754635,-50.595995,1.15,12.0,0,2331606
SFOS-I-0001,2011-09-28 09:01:57,2011-09-28 09:02:00,32517,3,64.754646,-50.596006,1.09,12.0,0,2331590
SFOS-I-0001,2011-09-28 08:31:23,2011-09-28 08:31:00,30683,3,64.754624,-50.596009,1.09,12.0,0,2331573
SFOS-I-0001,2011-09-28 08:01:39,2011-09-28 08:01:00,28899,3,64.754635,-50.595990,0.77,12.0,0,2331551
SFOS-I-0001,2011-09-28 07:31:32,2011-09-28 07:31:00,27092,3,64.754630,-50.596176,0.74,12.0,0,2331529
SFOS-I-0001,2011-09-28 07:01:25,2011-09-28 07:01:00,25285,3,64.754613,-50.596078,0.77,12.0,0,2331498
SFOS-I-0001,2011-09-28 06:31:26,2011-09-28 06:33:00,23486,3,64.754632,-50.596128,0.96,12.0,0,2331482
SFOS-I-0001,2011-09-28 06:01:39,2011-09-28 06:01:00,21699,3,64.754580,-50.596115,0.72,12.0,0,2331461
SFOS-I-0001,2011-09-28 05:31:24,2011-09-28 05:31:00,19884,3,64.754610,-50.596051,0.50,12.0,0,2331445
SFOS-I-0001,2011-09-28 05:01:23,2011-09-28 05:01:00,18083,3,64.754577,-50.596028,0.47,12.0,0,2331420
SFOS-I-0001,2011-09-28 04:31:24,2011-09-28 04:31:00,16284,3,64.754596,-50.596040,0.40,12.0,0,2331394
SFOS-I-0001,2011-09-28 04:01:23,2011-09-28 04:01:00,14483,3,64.754568,-50.596012,0.46,12.0,0,2331361
SFOS-I-0001,2011-09-28 03:31:56,2011-09-28 03:32:00,12716,3,64.754574,-50.595942,0.69,12.0,0,2331342
SFOS-I-0001,2011-09-28 03:01:39,2011-09-28 03:01:00,10899,3,64.754599,-50.595881,0.66,12.0,0,2331322
SFOS-I-0001,2011-09-28 02:31:21,2011-09-28 02:31:00,9081,3,64.754555,-50.595931,0.96,12.0,0,2331306
SFOS-I-0001,2011-09-28 02:01:39,2011-09-28 02:01:00,7299,3,64.754543,-50.595959,0.92,12.0,0,2331288
SFOS-I-0001,2011-09-28 01:31:21,2011-09-28 01:31:00,5481,3,64.754449,-50.595942,0.83,12.0,0,2331270
SFOS-I-0001,2011-09-28 01:01:21,2011-09-28 01:01:00,3681,3,64.754341,-50.595873,1.07,12.0,0,2331245
SFOS-I-0001,2011-09-28 00:31:24,2011-09-28 00:31:00,1884,3,64.754366,-50.595903,0.99,12.0,0,2331228
SFOS-I-0001,2011-09-28 00:01:26,2011-09-28 00:01:00,86,3,64.754368,-50.595851,1.01,12.0,0,2331208
SFOS-I-0001,2011-09-27 23:31:28,2011-09-27 23:31:00,84688,3,64.754455,-50.595887,0.91,12.0,0,2331186
SFOS-I-0001,2011-09-27 23:01:39,2011-09-27 23:01:00,82899,3,64.754543,-50.595945,0.59,12.0,0,2331164
SFOS-I-0001,2011-09-27 22:31:21,2011-09-27 22:31:00,81081,3,64.754541,-50.595926,1.12,12.0,0,2331145
SFOS-I-0001,2011-09-27 22:01:22,2011-09-27 22:01:00,79282,3,64.754591,-50.595978,1.09,12.0,0,2331124
SFOS-I-0001,2011-09-27 21:31:25,2011-09-27 21:31:00,77485,3,64.754605,-50.595978,1.40,12.0,0,2331057
SFOS-I-0001,2011-09-27 21:01:28,2011-09-27 21:01:00,75688,3,64.754630,-50.595981,1.30,12.0,0,2330992
SFOS-I-0001,2011-09-27 20:31:38,2011-09-27 20:31:00,73898,3,64.754627,-50.595995,1.19,12.0,0,2330929
SFOS-I-0001,2011-09-27 20:01:38,2011-09-27 20:01:00,72098,3,64.754538,-50.596159,1.13,12.0,0,2330857
SFOS-I-0001,2011-09-27 19:31:22,2011-09-27 19:31:00,70282,3,64.755143,-50.596901,0.73,12.0,0,2330787
SFOS-I-0001,2011-09-27 19:01:31,2011-09-27 19:01:00,68491,3,64.754549,-50.595965,0.78,12.0,0,2330731
SFOS-I-0001,2011-09-27 18:31:27,2011-09-27 18:31:00,66687,3,64.754621,-50.596009,0.68,12.0,0,2330706
SFOS-I-0001,2011-09-27 18:01:53,2011-09-27 18:02:00,64913,3,64.754596,-50.595912,1.00,12.0,0,2330682
SFOS-I-0001,2011-09-27 17:31:21,2011-09-27 17:31:00,63081,3,64.754582,-50.596001,0.91,12.0,0,2330658
SFOS-I-0001,2011-09-27 17:01:27,2011-09-27 17:01:00,61287,3,64.754588,-50.596034,0.96,12.0,0,2330630
SFOS-I-0001,2011-09-27 16:31:25,2011-09-27 16:31:00,59485,3,64.754596,-50.596053,0.90,12.0,0,2330612
SFOS-I-0001,2011-09-27 16:01:23,2011-09-27 16:01:00,57683,3,64.754577,-50.596042,1.11,12.0,0,2330588
SFOS-I-0001,2011-09-27 15:31:38,2011-09-27 15:31:00,55898,3,64.754566,-50.595978,0.90,12.0,0,2330565
SFOS-I-0001,2011-09-27 15:01:38,2011-09-27 15:01:00,54098,3,64.754591,-50.595923,0.88,12.0,0,2330541
SFOS-I-0001,2011-09-27 14:31:26,2011-09-27 14:31:00,52286,3,64.754599,-50.596009,0.89,12.0,0,2330523
SFOS-I-0001,2011-09-27 14:01:38,2011-09-27 14:01:00,50498,3,64.754566,-50.595987,0.84,12.0,0,2330507
SFOS-I-0001,2011-09-27 13:31:39,2011-09-27 13:31:00,48699,3,64.754585,-50.595945,0.86,12.0,0,2330489
SFOS-I-0001,2011-09-27 13:01:20,2011-09-27 13:01:00,46880,3,64.754474,-50.595634,1.09,12.0,0,2330469
SFOS-I-0001,2011-09-27 12:31:22,2011-09-27 12:31:00,45082,3,64.754374,-50.595792,1.07,12.0,0,2330450
SFOS-I-0001,2011-09-27 12:01:23,2011-09-27 12:01:00,43283,3,64.754466,-50.595831,1.20,12.0,0,2330427
SFOS-I-0001,2011-09-27 11:31:20,2011-09-27 11:31:00,41480,3,64.754441,-50.595809,1.17,12.0,0,2330407
SFOS-I-0001,2011-09-27 11:01:39,2011-09-27 11:01:00,39699,3,64.754538,-50.595876,1.15,12.0,0,2330383
SFOS-I-0001,2011-09-27 10:31:24,2011-09-27 10:31:00,37884,3,64.754677,-50.596034,1.13,12.0,0,2330365
SFOS-I-0001,2011-09-27 10:01:21,2011-09-27 10:01:00,36081,3,64.754632,-50.596095,1.31,12.0,0,2330344
SFOS-I-0001,2011-09-27 09:31:21,2011-09-27 09:31:00,34281,3,64.754632,-50.596098,1.17,12.0,0,2330324
SFOS-I-0001,2011-09-27 09:01:38,2011-09-27 09:01:00,32498,3,64.754568,-50.596020,1.14,12.0,0,2330304
SFOS-I-0001,2011-09-27 08:31:23,2011-09-27 08:31:00,30683,3,64.754607,-50.596065,1.14,12.0,0,2330283
SFOS-I-0001,2011-09-27 08:01:22,2011-09-27 08:01:00,28882,3,64.754599,-50.596009,1.10,12.0,0,2330264
SFOS-I-0001,2011-09-27 07:31:25,2011-09-27 07:31:00,27085,3,64.754613,-50.596059,0.76,12.0,0,2330240
SFOS-I-0001,2011-09-27 07:01:23,2011-09-27 07:01:00,25283,3,64.754618,-50.595978,0.59,12.0,0,2330218
SFOS-I-0001,2011-09-27 06:31:56,2011-09-27 06:32:00,23516,3,64.754566,-50.596142,0.49,12.0,0,2330200
SFOS-I-0001,2011-09-27 06:02:56,2011-09-27 06:03:00,21776,3,64.754460,-50.596053,0.93,12.0,1,2330176
SFOS-I-0001,2011-09-27 05:01:05,2011-09-27 05:01:00,18065,3,64.753774,-50.594903,0.67,12.0,0,2330136
SFOS-I-0001,2011-09-27 04:31:35,2011-09-27 04:31:00,16295,3,64.753780,-50.594881,0.63,12.0,0,2330116
SFOS-I-0001,2011-09-27 04:01:06,2011-09-27 04:01:00,14466,3,64.753710,-50.594876,0.72,12.0,0,2330097
SFOS-I-0001,2011-09-27 03:31:05,2011-09-27 03:31:00,12665,3,64.753782,-50.594926,0.61,12.0,0,2330073
SFOS-I-0001,2011-09-27 03:01:05,2011-09-27 03:01:00,10865,3,64.753785,-50.594934,0.67,12.0,0,2330052
SFOS-I-0001,2011-09-27 02:31:05,2011-09-27 02:31:00,9065,3,64.753827,-50.594865,0.89,12.0,0,2330032
SFOS-I-0001,2011-09-27 02:01:38,2011-09-27 02:01:00,7298,3,64.753741,-50.594801,0.96,12.0,0,2330009
SFOS-I-0001,2011-09-27 01:31:05,2011-09-27 01:31:00,5465,3,64.753688,-50.594859,1.08,12.0,0,2329991
SFOS-I-0001,2011-09-27 01:01:05,2011-09-27 01:01:00,3665,3,64.753588,-50.594540,1.03,12.0,0,2329969
SFOS-I-0001,2011-09-27 00:31:05,2011-09-27 00:31:00,1865,3,64.753641,-50.594653,1.03,12.0,0,2329949
SFOS-I-0001,2011-09-27 00:01:05,2011-09-27 00:01:00,65,3,64.753693,-50.594817,0.84,12.0,0,2329927
SFOS-I-0001,2011-09-26 23:31:05,2011-09-26 23:31:00,84665,3,64.753818,-50.594653,0.86,12.0,0,2329906
SFOS-I-0001,2011-09-26 23:01:38,2011-09-26 23:01:00,82898,3,64.753882,-50.594798,0.87,12.0,0,2329887
SFOS-I-0001,2011-09-26 22:31:05,2011-09-26 22:31:00,81065,3,64.753966,-50.594976,0.89,12.0,0,2329862
SFOS-I-0001,2011-09-26 22:01:05,2011-09-26 22:01:00,79265,3,64.754035,-50.595081,1.02,12.0,0,2329834
SFOS-I-0001,2011-09-26 21:31:05,2011-09-26 21:31:00,77465,3,64.753680,-50.594670,0.92,12.0,0,2329809
SFOS-I-0001,2011-09-26 21:03:00,2011-09-26 21:03:00,75780,3,64.753580,-50.594398,0.57,12.0,0,2329782
SFOS-I-0001,2011-09-26 20:31:35,2011-09-26 20:31:00,73895,3,64.752374,-50.593309,0.44,12.0,0,2329752
SFOS-I-0001,2011-09-26 20:01:05,2011-09-26 20:01:00,72065,3,64.749796,-50.591173,0.20,12.0,0,2329723
SFOS-I-0001,2011-09-26 19:31:05,2011-09-26 19:31:00,70265,3,64.747293,-50.588215,0.36,12.0,0,2329696
SFOS-I-0001,2011-09-26 19:01:05,2011-09-26 19:01:00,68465,3,64.744296,-50.585592,0.38,12.0,0,2329668
SFOS-I-0001,2011-09-26 18:31:38,2011-09-26 18:31:00,66698,3,64.742207,-50.583406,0.73,12.0,0,2329647
SFOS-I-0001,2011-09-26 18:01:06,2011-09-26 18:01:00,64866,3,64.740938,-50.581467,0.50,12.0,0,2329609
SFOS-I-0001,2011-09-26 17:31:06,2011-09-26 17:31:00,63066,3,64.738738,-50.577795,0.50,12.0,0,2329587
SFOS-I-0001,2011-09-26 17:01:05,2011-09-26 17:01:00,61265,3,64.738013,-50.578403,0.70,12.0,0,2329566
SFOS-I-0001,2011-09-26 16:31:05,2011-09-26 16:31:00,59465,3,64.737399,-50.579992,0.54,12.0,0,2329545
SFOS-I-0001,2011-09-26 16:01:38,2011-09-26 16:01:00,57698,3,64.736727,-50.581103,0.36,12.0,0,2329526
SFOS-I-0001,2011-09-26 15:31:07,2011-09-26 15:31:00,55867,3,64.736071,-50.580737,0.23,12.0,0,2329504
SFOS-I-0001,2011-09-26 15:01:05,2011-09-26 15:01:00,54065,3,64.736280,-50.580215,0.18,12.0,0,2329488
SFOS-I-0001,2011-09-26 14:31:05,2011-09-26 14:31:00,52265,3,64.736974,-50.583031,0.24,12.0,0,2329467
SFOS-I-0001,2011-09-26 14:01:13,2011-09-26 14:01:00,50473,3,64.737846,-50.587501,0.26,12.0,0,2329464
SFOS-I-0001,2011-09-26 13:37:08,2011-09-26 13:37:00,49028,3,64.738796,-50.591453,0.49,12.0,0,2329453
SFOS-I-0001,2011-09-26 10:04:46,2011-09-26 13:42:00,36286,3,64.762027,-50.609448,0.14,12.0,1,2329460
SFOS-I-0001,2011-09-26 09:01:10,2011-09-26 09:02:00,32470,3,64.762177,-50.608328,0.60,12.0,0,2329437
SFOS-I-0001,2011-09-26 08:31:05,2011-09-26 08:31:00,30665,3,64.761563,-50.608859,1.08,12.0,0,2329433
SFOS-I-0001,2011-09-26 08:01:38,2011-09-26 08:01:00,28898,3,64.761577,-50.608945,1.40,12.0,0,2329430
SFOS-I-0001,2011-09-26 07:31:08,2011-09-26 07:31:00,27068,3,64.761593,-50.608923,1.33,12.0,0,2329426
SFOS-I-0001,2011-09-26 07:01:05,2011-09-26 07:01:00,25265,3,64.761580,-50.608878,0.82,12.0,0,2329425
SFOS-I-0001,2011-09-26 06:31:05,2011-09-26 06:31:00,23465,3,64.761566,-50.608862,1.22,12.0,0,2329421
SFOS-I-0001,2011-09-26 06:01:05,2011-09-26 06:01:00,21665,3,64.761530,-50.608773,1.14,12.0,0,2329419
SFOS-I-0001,2011-09-26 05:31:06,2011-09-26 05:31:00,19866,3,64.761463,-50.608837,0.98,12.0,0,2329416
SFOS-I-0001,2011-09-26 05:01:38,2011-09-26 05:01:00,18098,3,64.760768,-50.608456,1.14,12.0,0,2329414
SFOS-I-0001,2011-09-26 04:31:05,2011-09-26 04:31:00,16265,3,64.760616,-50.608456,0.86,12.0,0,2329411
SFOS-I-0001,2011-09-26 04:01:05,2011-09-26 04:01:00,14465,3,64.760588,-50.608384,1.44,12.0,0,2329408
SFOS-I-0001,2011-09-26 03:31:04,2011-09-26 03:31:00,12664,3,64.760574,-50.608373,1.65,12.0,0,2329404
SFOS-I-0001,2011-09-26 03:01:05,2011-09-26 03:01:00,10865,3,64.760577,-50.608376,1.61,12.0,0,2329402
SFOS-I-0001,2011-09-26 02:31:38,2011-09-26 02:32:00,9098,3,64.760555,-50.608373,1.66,12.0,0,2329400
SFOS-I-0001,2011-09-26 02:01:06,2011-09-26 02:01:00,7266,3,64.760618,-50.608373,1.53,12.0,0,2329397
SFOS-I-0001,2011-09-26 01:31:05,2011-09-26 01:31:00,5465,3,64.760577,-50.608431,1.47,12.0,0,2329394
SFOS-I-0001,2011-09-26 01:01:05,2011-09-26 01:01:00,3665,3,64.760546,-50.608359,1.56,12.0,0,2329392
SFOS-I-0001,2011-09-26 00:31:05,2011-09-26 00:31:00,1865,3,64.760541,-50.608390,1.39,12.0,0,2329390
SFOS-I-0001,2011-09-26 00:01:38,2011-09-26 00:01:00,98,3,64.760557,-50.608534,1.25,12.0,0,2329387
SFOS-I-0001,2011-09-25 23:31:05,2011-09-25 23:31:00,84665,3,64.760574,-50.608534,1.56,12.0,0,2329382
SFOS-I-0001,2011-09-25 23:01:05,2011-09-25 23:01:00,82865,3,64.760621,-50.608317,1.54,12.0,0,2329380
SFOS-I-0001,2011-09-25 22:31:05,2011-09-25 22:31:00,81065,3,64.760566,-50.608431,1.15,12.0,0,2329378
SFOS-I-0001,2011-09-25 22:01:06,2011-09-25 22:01:00,79266,3,64.760593,-50.608456,1.29,12.0,0,2329374
SFOS-I-0001,2011-09-25 21:31:05,2011-09-25 21:31:00,77465,3,64.760688,-50.608512,0.62,12.0,0,2329372
SFOS-I-0001,2011-09-25 21:01:38,2011-09-25 21:01:00,75698,3,64.760796,-50.608331,1.46,12.0,0,2329369
SFOS-I-0001,2011-09-25 20:31:04,2011-09-25 20:31:00,73864,3,64.760821,-50.608453,0.36,12.0,0,2329367
SFOS-I-0001,2011-09-25 20:01:05,2011-09-25 20:01:00,72065,3,64.760821,-50.608462,1.27,12.0,0,2329365
SFOS-I-0001,2011-09-25 19:31:05,2011-09-25 19:31:00,70265,3,64.760838,-50.608420,1.30,12.0,0,2329360
SFOS-I-0001,2011-09-25 19:01:38,2011-09-25 19:01:00,68498,3,64.760832,-50.608403,1.23,12.0,0,2329359
SFOS-I-0001,2011-09-25 18:31:06,2011-09-25 18:31:00,66666,3,64.760832,-50.608359,1.63,12.0,0,2329356
SFOS-I-0001,2011-09-25 18:01:07,2011-09-25 18:01:00,64867,3,64.760813,-50.608448,1.22,12.0,0,2329353
SFOS-I-0001,2011-09-25 17:31:07,2011-09-25 17:31:00,63067,3,64.760780,-50.608437,1.29,12.0,0,2329351
SFOS-I-0001,2011-09-25 17:01:06,2011-09-25 17:01:00,61266,3,64.760796,-50.608465,1.43,12.0,0,2329348
SFOS-I-0001,2011-09-25 16:31:05,2011-09-25 16:31:00,59465,3,64.760785,-50.608495,1.04,12.0,0,2329345
SFOS-I-0001,2011-09-25 16:01:39,2011-09-25 16:01:00,57699,3,64.760693,-50.608578,1.20,12.0,0,2329344
SFOS-I-0001,2011-09-25 15:31:05,2011-09-25 15:31:00,55865,3,64.760663,-50.608617,1.75,12.0,0,2329338
SFOS-I-0001,2011-09-25 15:01:05,2011-09-25 15:01:00,54065,3,64.760666,-50.608612,0.96,12.0,0,2329336
SFOS-I-0001,2011-09-25 14:31:05,2011-09-25 14:31:00,52265,3,64.760585,-50.608531,1.12,12.0,0,2329333
SFOS-I-0001,2011-09-25 14:01:05,2011-09-25 14:01:00,50465,3,64.760585,-50.608520,1.13,12.0,0,2329331
SFOS-I-0001,2011-09-25 13:31:06,2011-09-25 13:31:00,48666,3,64.760568,-50.608506,1.60,12.0,0,2329328
SFOS-I-0001,2011-09-25 13:01:06,2011-09-25 13:01:00,46866,3,64.760580,-50.608609,1.38,12.0,0,2329326
SFOS-I-0001,2011-09-25 12:31:38,2011-09-25 12:31:00,45098,3,64.760555,-50.608590,1.04,12.0,0,2329324
SFOS-I-0001,2011-09-25 12:01:09,2011-09-25 12:01:00,43269,3,64.760630,-50.608395,1.08,12.0,0,2329321
SFOS-I-0001,2011-09-25 11:31:05,2011-09-25 11:31:00,41465,3,64.760627,-50.608553,1.29,12.0,0,2329316
SFOS-I-0001,2011-09-25 11:01:38,2011-09-25 11:01:00,39698,3,64.760507,-50.608401,1.28,12.0,0,2329315
SFOS-I-0001,2011-09-25 10:31:05,2011-09-25 10:31:00,37865,3,64.760855,-50.608587,1.13,12.0,0,2329311
SFOS-I-0001,2011-09-25 10:01:05,2011-09-25 10:01:00,36065,3,64.760874,-50.608615,0.76,12.0,0,2329309
SFOS-I-0001,2011-09-25 09:31:05,2011-09-25 09:31:00,34265,3,64.760868,-50.608670,0.60,12.0,0,2329306
SFOS-I-0001,2011-09-25 09:01:06,2011-09-25 09:01:00,32466,3,64.760988,-50.608637,0.43,12.0,0,2329304
SFOS-I-0001,2011-09-25 08:31:05,2011-09-25 08:31:00,30665,3,64.761043,-50.608615,0.51,12.0,0,2329301
SFOS-I-0001,2011-09-25 08:01:38,2011-09-25 08:01:00,28898,3,64.761046,-50.608656,0.68,12.0,0,2329300
SFOS-I-0001,2011-09-25 07:31:06,2011-09-25 07:31:00,27066,3,64.761110,-50.608584,1.07,12.0,0,2329294
SFOS-I-0001,2011-09-25 07:01:05,2011-09-25 07:01:00,25265,3,64.761121,-50.608537,1.21,12.0,0,2329292
SFOS-I-0001,2011-09-25 06:31:06,2011-09-25 06:31:00,23466,3,64.761160,-50.608542,0.97,12.0,0,2329289
SFOS-I-0001,2011-09-25 06:01:06,2011-09-25 06:01:00,21666,3,64.761055,-50.608717,0.77,12.0,0,2329288
SFOS-I-0001,2011-09-25 05:31:32,2011-09-25 05:31:00,19892,3,64.761146,-50.608556,0.65,12.0,0,2329284
SFOS-I-0001,2011-09-25 05:01:05,2011-09-25 05:01:00,18065,3,64.761132,-50.608645,0.88,12.0,0,2329282
SFOS-I-0001,2011-09-25 04:31:05,2011-09-25 04:31:00,16265,3,64.761082,-50.608637,1.01,12.0,0,2329279
SFOS-I-0001,2011-09-25 04:01:38,2011-09-25 04:01:00,14498,3,64.761016,-50.608606,1.25,12.0,0,2329278
SFOS-I-0001,2011-09-25 03:31:06,2011-09-25 03:31:00,12666,3,64.760988,-50.608603,1.30,12.0,0,2329272
SFOS-I-0001,2011-09-25 03:01:07,2011-09-25 03:01:00,10867,3,64.760766,-50.608562,1.35,12.0,0,2329271
SFOS-I-0001,2011-09-25 02:31:05,2011-09-25 02:31:00,9065,3,64.760980,-50.608570,1.41,12.0,0,2329267